User: anonymous   Login
Location: Reading
(52.0000°N, 0.0000°E)
Time: 18:36:33
(UTC+01:00)
Language:

Iridium 41 - Orbit

View from above orbital plane
View from above orbital plane
View from above satellite
View from above satellite

Ground track
Ground track

The orbit data is extracted from the following two-line orbital elements,

1 25040U 97069B   15109.48670318  .00000542  00000-0  18643-3 0  9991
2 25040 086.3989 352.0275 0002253 081.2813 003.9553 14.34218398913129
Epoch (UTC): 19 April 2015 11:40:51
Eccentricity: 0.0002253
inclination: 86.3989°
perigee height: 776 km
apogee height: 779 km
right ascension of ascending node: 352.0275°
argument of perigee: 81.2813°
revolutions per day: 14.34218398
mean anomaly at epoch: 3.9553°
orbit number at epoch: 91312

The dashed part of the orbit path shows where the satellite is in the earth's shadow,  

DLR